Regional Weather Roundup
Issued by NWS Wilmington, NC

Home | Current Version | Previous Version | Text Only | Print | Product List | Glossary On
Versions: 1 2 3 4 5 6 7 8 9 10 11 12 13 14 15 16 17 18 19 20 21 22 23 24 25 26 27 28
000
ASUS42 KILM 260613
RWRILM
RWRILM
REGIONAL HOURLY WEATHER ROUNDUP
NATIONAL WEATHER SERVICE WILMINGTON NC
200 AM EDT SUN JUN 26 2016

NOTE: "FAIR" INDICATES FEW OR NO CLOUDS BELOW 12,000 FEET WITH NO
SIGNIFICANT WEATHER AND/OR OBSTRUCTIONS TO VISIBILITY.

...............WFO WILMINGTON COUNTY WARNING AREA...............

......COASTAL NC AND SC COUNTIES......

CITY           SKY/WX    TMP DP  RH WIND       PRES   REMARKS
WILMINGTON     CLOUDY    73  70  90 NE8       30.14S
N MYRTLE BEACH CLOUDY    78  73  84 NE10      30.11S
MYRTLE BEACH   CLOUDY    79  68  69 E15       30.13S

......INLAND NC AND SC COUNTIES.......

CITY           SKY/WX    TMP DP  RH WIND       PRES   REMARKS
LUMBERTON      CLOUDY    75  70  84 NE10      30.14F
ELIZABETHTOWN  CLOUDY    73  71  93 CALM      30.15S
WHITEVILLE     MOCLDY    74  72  93 NE5       30.13S
FLORENCE       PTCLDY    76  73  91 E6        30.13S
DARLINGTON     MOCLDY    76  73  91 NE7       30.15R
KINGSTREE      CLOUDY    73  72  94 N5        30.11S
HARTSVILLE     FAIR      73  72  94 E5        30.14R
BENNETTSVILLE  CLOUDY    79  72  78 E9        30.14S
CONWAY         FAIR      73  72  94 NE6       30.12S
GEORGETOWN     MOCLDY    77  73  88 E10G17    30.10F
MARION         FAIR      72  72 100 NE6       30.13S

....................REST OF NORTH CAROLINA......................

.........EASTERN NC.........

CITY           SKY/WX    TMP DP  RH WIND       PRES   REMARKS
CAPE HATTERAS  CLOUDY    72  69  90 NE6       30.13F
JACKSONVILLE   PTCLDY    69  66  90 NE6       30.16S
MOREHEAD CITY  CLOUDY    71  67  87 N7        30.14S
KENANSVILLE    CLOUDY    70  65  83 CALM      30.16F
NEW BERN       CLOUDY    72  64  76 E8        30.17S
ELIZABETH CITY CLEAR     67  65  93 NE7       30.16S

.........CENTRAL NC.........

CITY           SKY/WX    TMP DP  RH WIND       PRES   REMARKS
RALEIGH DURHAM PTCLDY    71  65  81 E7        30.19R
ROCKY MOUNT    CLEAR     66  65  96 CALM      30.19S
ROANOKE RAPIDS NOT AVBL
FAYETTEVILLE   CLEAR     74  67  78 E8        30.15S
HOFFMAN        MOCLDY    76  70  81 E5        30.15S

.........WESTERN NC.........

CITY           SKY/WX    TMP DP  RH WIND       PRES   REMARKS
CHARLOTTE      CLOUDY    76  67  73 NE10      30.18S
GREENSBORO     PTCLDY    71  68  90 NE6       30.20S
HICKORY        NOT AVBL
BOONE          NOT AVBL
ASHEVILLE      NOT AVBL

.....................REST OF SOUTH CAROLINA.....................

.........EASTERN SC.........

CITY           SKY/WX    TMP DP  RH WIND       PRES   REMARKS
CHARLESTON     MOCLDY    77  72  84 NE7       30.08S
BEAUFORT MCAS  PTCLDY    79  75  87 NE5       30.07F
HILTON HEAD    PTCLDY    81  77  89 NE3       30.07F

.........CENTRAL SC.........

CITY           SKY/WX    TMP DP  RH WIND       PRES   REMARKS
COLUMBIA       CLEAR     79  73  82 E5        30.11S
ORANGEBURG     CLEAR     76  72  87 NE6       30.10F
SUMTER SHAW    MOCLDY    75  73  94 E7        30.10S

.........WESTERN SC.........

CITY           SKY/WX    TMP DP  RH WIND       PRES   REMARKS
GREENVILLE     NOT AVBL
ROCK HILL      CLOUDY    76  68  76 VRB3      30.17F
ANDERSON       CLEAR     77  67  71 NE6       30.14S
CLEMSON        NOT AVBL
GREENWOOD      CLEAR     76  67  73 NE3       30.15S


...................COASTAL AND OFFSHORE REPORTS..................

................LOCAL PIERS AND NC RESERVE................


STATION/POSITION TIME  SKY/WX   TEMP    WIND        PRES    VSBY
                                AIR SEA DIR/SP/G
                 (UTC)          (F)     (DEG/KT/KT) (MB)    (MI)
JOHNY MRCER PIER 0500            77 83   40/ 17/ 19 1019.6R
NC RESRV MASNBRO NOT AVBL
OCEAN CREST PIER NOT AVBL
SPRINGMAID  PIER 0500            79 83   50/ 16/ 19 1019.2S


................COASTAL AND OFFSHORE BUOYS................


STATION/POSITION TIME  SKY/WX   TEMP    WIND        PRES    VSBY
                                AIR SEA DIR/SP/G
                 (UTC)          (F)     (DEG/KT/KT) (MB)    (MI)
DIMNDSHOAL 41025 0550            76 82   10/ 14/ 16 1019.6F
WVE H/P(F/S)=  4/ 6 SWL H/P/D(F/S/D)=  2/ 60/ 6

CAPE LOOKOUT     0600            75      30/ 12/ 14 1019.9F
ONSLOW BAY 41036 NOT AVBL
ONSLOW BAY 41064 0508            78 81   50/ 12/ 17 1020.6R
ONSLOW BAY 41159 0525               80                N/A
WVE H/P(F/S)=  4/ 5

5SE WRITBC 41038 0508            78 80   60/ 16/ 19 1020.7R
MASNBO INL 41110 0506               80                N/A
WVE H/P(F/S)=  4/ 5

WILM HARBR 41108 0526               80                N/A
WVE H/P(F/S)=  4/ 6

27SE WRITB 41037 0508               80   60/ 14/ 17 1019.3F
FRYING PAN 41013 0500            79 80   70/ 14/ 17 1019.1R
SUNST NRSH 41024 0508            79 81   80/ 14/ 19 1019.2S
CAPRS NRSH 41029 0508            81 82   60/ 14/ 17 1018.3R
EDISTO     41004 0550            81 82  140/  8/ 10 1017.6F
WVE H/P(F/S)=  3/ 8 SWL H/P/D(F/S/D)=  3/110/ 8



..........OFFSHORE BUOYS BEYOND 100 NM OFFSHORE...........
.....IN A TRIANGLE---HAT TO BERMUDA TO BAHAMAS TO HAT.....


STATION/POSITION TIME  SKY/WX   TEMP    WIND        PRES    VSBY
                                AIR SEA DIR/SP/G
                 (UTC)          (F)     (DEG/KT/KT) (MB)    (MI)
150E HAT   41001 NOT AVBL
W BERMUDA  41048 0550            79 78  210/ 12/ 16 1018.7F
WVE H/P(F/S)=  4/ 8 SWL H/P/D(F/S/D)=  3/120/ 8

ATLANTIC S 41049 0550            80 81   90/ 14/ 16 1019.9F
WVE H/P(F/S)=  4/ 8 SWL H/P/D(F/S/D)=  3/ 90/ 8

E BAHAMAS  41046 0500            80 83   90/ 12/ 17 1018.9F
NE BAHAMAS 41047 0500            81 83  130/  8/  8 1019.6F
120E CANVRL41010 0520            82 83  180/ 14/ 16 1018.6F

END




USA.gov is the U.S. government's official web portal to all federal, state and local government web resources and services.